Regional Weather Roundup
Issued by NWS Kansas City/Pleasant Hill, MO

Home | Current Version | Previous Version | Graphics & Text | Print | Product List | Glossary Off
Versions: 1 2 3 4 5 6 7 8 9 10 11 12 13 14 15 16 17 18 19 20 21 22 23 24 25 26 27 28 29 30 31 32 33 34 35 36 37 38 39 40 41 42 43 44 45 46 47 48 49 50

000
ASUS43 KEAX 270110
RWREAX

WEATHER ROUNDUP FOR EASTERN KANSAS AND NORTHWEST MISSOURI
NATIONAL WEATHER SERVICE KANSAS CITY/PLEASANT HILL MO
800 PM CDT TUE MAY 26 2015

KSZ040-057-103>105-MOZ028-029-037-043-270200-
...KANSAS CITY METROPOLITAN AREA...

CITY           SKY/WX    TMP DP  RH WIND       PRES   REMARKS
K.C. INTL      PTCLDY    73  60  63 W8        29.88S
K.C. DOWNTOWN  PTCLDY    77  58  51 W9        29.87R
LEES SUMMIT    MOCLDY    75  59  57 W9        29.89S
OLATHE - IXD   PTCLDY    75  59  57 W8        29.91R
OLATHE - OJC   PTCLDY    76  59  55 W7        29.89R
LAWRENCE       CLEAR     74  60  61 W6        29.89S

$$

MOZ001>008-011>017-020>025-030>033-038>040-044>046-053-054-270200-
...NORTHERN AND CENTRAL MISSOURI...

CITY           SKY/WX    TMP DP  RH WIND       PRES   REMARKS
ST. JOSEPH     CLEAR     73  58  59 W10       29.87R
MOSBY          CLEAR     73  57  56 W7        29.87S
WARRENSBURG    PTCLDY    73  63  68 S8        29.88S
WHITEMAN AFB   CLEAR     74  63  69 SW13      29.88S
CLINTON        PTCLDY    73  64  73 S8        29.91S
SEDALIA        CLEAR     74  62  66 SW10      29.91S
WARSAW         NOT AVBL
CHILLICOTHE      N/A     75  61  61 VRB5      29.87R
KIRKSVILLE     MOCLDY    73  60  63 W7        29.86R

$$

MOZ041-047>049-056>058-063>065-088>090-097-270200-
...EASTERN AND SOUTHERN MISSOURI...

CITY           SKY/WX    TMP DP  RH WIND       PRES   REMARKS
ST. LOUIS INTL PTCLDY    78  58  49 SW12      29.93R
SPIRIT OF STL  PTCLDY   N/A N/A N/A SW7       29.92R
COLUMBIA       CLEAR     73  61  65 SW12      29.91R
JEFFERSON CITY CLEAR     76  60  57 S7        29.90S
ROLLA          CLEAR     70  61  73 SW7       29.94S
OSAGE BEACH    CLEAR     73  61  64 S3        29.94S
SPRINGFIELD    PTCLDY    72  62  71 S7        29.96R
BRANSON        MOCLDY    72  63  73 S5        29.99S
JOPLIN         CLOUDY    72  64  76 SE8       29.90F
WEST PLAINS    CLEAR     73  62  68 S5        30.00S

$$

IAZ060-094-KSZ022-034>040-054-083-096-NEZ052-066-093-270200-
...KANSAS...SOUTHEAST NEBRASKA AND IOWA...

CITY           SKY/WX    TMP DP  RH WIND       PRES   REMARKS
TOPEKA         CLEAR     74  57  55 W5        29.89R
MANHATTAN      PTCLDY    73  59  61 W5        29.90R
EMPORIA        MOCLDY    72  62  71 SW6       29.92R
CHANUTE        MOCLDY    70  66  87 S7        29.92R
WICHITA        MOCLDY    71  61  70 NE6       29.92F
OMAHA          MOCLDY    68  56  65 W7        29.85S
LINCOLN        PTCLDY    70  53  54 W6        29.89R
FALLS CITY     MOCLDY    71  59  65 NW8       29.86S
LAMONI         CLEAR     69  62  78 W10       29.85R
DES MOINES     MOCLDY    66  61  84 NW9       29.81R

$$




USA.gov is the U.S. government's official web portal to all federal, state and local government web resources and services.